Weather in Oradea

Romania     47°03′42″N   21°56′53″E
temp.,
°C
wind,
m/s
gust,
m/s
humid.,
%
clouds,
%
prec.,
mm/h
press.,
hPa
HPBL,
m
15 april, thu
thu1500:00+1n2696100 0.3 1020306
03:00+1wsw1193100 0.3 102025
06:000ssw2398100 0.1 1020123
09:00+2sw2499100 0.4 1021246
12:00+4w238799 0.4 1020612
15:00+6wsw227998 1.3 1020858
18:00+7ssw1268100 0.8 1019897
21:00+3sse228597 1.5 101913
16 april, fri
fri1600:00+2sse339315 0.1 101953
03:00+2s379774 0.1 1019205
06:00+1ssw369786 0.0 1020199
09:00+2ssw579043 0.0 1020423
12:00+6sw667399 0.0 10211121
15:00+7ssw5666100 0.1 10211106
18:00+7ssw5666100 0.0 1020929
21:00+5s3574100 0.0 1021139
17 april, sat
sat1700:00+5sse227060 0.0 102047
03:00+1sse228112 0.0 102114
06:000se217951 0.0 102010
09:00+5ne126688 0.0 1020210
12:00+10nne125328 0.0 10181022
15:00+13n224576 0.0 10161441
18:00+13n3455100 0.0 10151168
21:00+8nne41074100 0.0 1015205
18 april, sun
sun1800:00+6ne377678 0.0 1015152
03:00+5nne3581100 0.0 1014107
06:00+5nne3583100 0.0 1013121
09:00+7ne1376100 0.0 1013137
12:00+10s2471100 0.1 1014861
15:00+8ne1387100 1.3 1015400
18:00+7sw1293100 0.5 1015161
21:00+7ssw2496100 0.8 1016228
19 april, mon
mon1900:00+6s2597100 0.3 1016270
03:00+6ssw1398100 0.4 1015182
06:00+6wnw0198100 0.2 101570
09:00+6n1196100 0.8 1014114
12:00+7n2394100 0.7 1014331
15:00+8nne3591100 0.9 1012448
18:00+8nne4790100 0.0 1011469
21:00+7nne3794100 0.0 1010265